[[{"header":{"parameterUnit":"m.s-1","parameterCategory":1,"la1":30.2991,"la2":30.254,"lo1":-89.0895,"lo2":-89.0444,"dy":0.0017,"dx":0.0017,"nx":28,"ny":28,"refTime":"2025-08-31T21:00:00:Z","depth":0,"parameterNumber":2,"parameterNumberName":"U-component_of_WINDS"},"data":[0,0,0,0,0,0,0,0,0,0,0,0,0,0,0,0,0,0,0,0,0,0,0,0,0,0,0,0,0,0,0,0,0,0,0,0,0,0,0,0,0,0,0,0,0,0,0,0,0,0,0,0,0,0,0,0,0,0,-5.5256,-5.5256,0,-5.5265,-5.5265,-5.5265,-5.5092,-5.5088,-5.5083,-5.5079,-5.5089,-5.5094,-5.5099,0,0,0,0,0,0,0,0,0,0,0,0,0,-5.509,-5.5094,-5.5256,-5.5256,-5.5256,-5.5265,-5.5265,-5.5265,-5.5093,-5.5088,-5.5082,-5.5077,-5.5088,-5.5093,-5.5099,0,0,0,0,0,0,0,0,0,0,0,0,0,-5.5137,-5.5095,-5.5256,-5.5172,-5.5164,-5.5265,-5.5265,-5.5266,-5.5095,-5.5087,-5.508,-5.5074,-5.5086,-5.5093,-5.51,-5.5283,0,0,-5.5121,-5.5124,0,0,0,0,0,0,0,0,-5.5135,-5.5143,-5.5184,-5.5178,-5.5169,-5.517,-5.521,-5.5271,-5.5096,-5.5121,-5.5079,-5.5071,-5.5122,-5.5126,-5.5143,-5.5283,-5.5284,-5.5122,-5.5126,-5.5129,-5.5131,0,0,0,0,0,0,0,-5.5132,-5.5142,-5.526,-5.5185,-5.5176,-5.5133,-5.5132,-5.5221,-5.5161,-5.5118,-5.5106,-5.5109,-5.5117,-5.5137,-5.5142,-5.5284,-5.5121,-5.5128,-5.5132,-5.5135,-5.5572,-5.5579,0,0,0,0,0,0,-5.514,-5.514,-5.5259,-5.526,-5.5134,-5.5142,-5.5141,-5.5177,-5.5159,-5.515,-5.5115,-5.5101,-5.5128,-5.5134,-5.5142,-5.5352,-5.5129,-5.5135,-5.5139,-5.5565,-5.5574,-5.5582,0,0,0,0,0,0,-5.5137,-5.5152,-5.5259,-5.5197,-5.5207,-5.5152,-5.5195,-5.5181,-5.52,-5.5157,-5.5145,-5.5146,-5.5123,-5.5132,-5.5248,-5.535,-5.5138,-5.5145,-5.5556,-5.5568,-5.5578,-5.5777,0,0,0,0,0,0,-5.5133,-5.5152,-5.5221,-5.52,-5.5211,-5.5366,-5.5201,-5.5186,-5.5213,-5.5195,-5.5183,-5.5174,-5.5118,-5.5239,-5.5255,-5.5356,-5.515,-5.5547,-5.5561,-5.5575,-5.5761,-5.5794,-5.5822,0,0,0,0,0,-5.5127,-5.5278,-5.5225,-5.5241,-5.5296,-5.5372,-5.5379,-5.5311,-5.5222,-5.529,-5.5262,-5.5175,-5.5337,-5.5252,-5.5269,-5.5374,-5.554,-5.5557,-5.5573,-5.5748,-5.5788,-5.5821,0,0,0,0,0,0,-5.5313,-5.5273,-5.5215,-5.5363,-5.5372,-5.5343,-5.5427,-5.5355,-5.5391,-5.5372,-5.5286,-5.5285,-5.5415,-5.5406,-5.5312,-5.5549,-5.5423,-5.5444,-5.5549,-5.5587,-5.5617,-5.5615,-5.5156,0,0,0,0,0,-5.5371,-5.5436,-5.5398,-5.5532,-5.554,-5.5484,-5.5514,-5.5461,-5.5467,-5.547,-5.545,-5.5461,-5.5513,-5.555,-5.5596,-5.576,-5.5754,-5.584,-5.587,-5.5895,-5.5914,-5.5998,-5.6035,-5.5637,-5.5637,-5.5637,0,0,-5.5492,-5.5478,-5.5525,-5.5569,-5.557,-5.5639,-5.5488,-5.5568,-5.5617,-5.5482,-5.559,-5.5577,-5.5582,-5.5722,-5.5783,-5.5719,-5.6023,-5.5917,-5.5937,-5.5942,-5.6019,-5.6056,-5.609,-5.5649,-5.5647,-5.5645,0,0,-5.5746,-5.5744,-5.5854,-5.5858,-5.5861,-5.5822,-5.5849,-5.5831,-5.5816,-5.5923,-5.5822,-5.5881,-5.5974,-5.5981,-5.5998,-5.6254,-5.6175,-5.6272,-5.6429,-5.6512,-5.6543,-5.657,-5.666,-5.6693,-5.6291,-5.6292,-5.6292,0,-5.5896,-5.5995,-5.592,-5.6005,-5.6027,-5.5908,-5.6018,-5.6025,-5.6044,-5.6062,-5.599,-5.6103,-5.6099,-5.6238,-5.63,-5.6318,-5.6345,-5.6272,-5.6545,-5.6571,-5.6596,-5.668,-5.6714,-5.6303,-5.6302,-5.6301,-5.63,0,-5.6178,-5.6249,-5.6337,-5.6357,-5.6389,-5.6487,-5.6425,-5.6467,-5.6411,-5.638,-5.649,-5.648,-5.6522,-5.6551,-5.6498,-5.6683,-5.6642,-5.656,-5.6431,-5.6647,-5.6724,-5.6756,-5.632,-5.6316,-5.6312,-5.6309,0,0,-5.6549,-5.6525,-5.6558,-5.6564,-5.6559,-5.6612,-5.6705,-5.6744,-5.678,-5.6798,-5.6872,-5.6954,-5.6876,-5.6894,-5.6841,-5.6914,-5.7115,-5.6821,-5.682,-5.6874,-5.7316,-5.7376,-5.7415,-5.7063,-5.7069,-5.7074,-5.7314,0,-5.6794,-5.6948,-5.6883,-5.7044,-5.7107,-5.6994,-5.7074,-5.708,-5.7054,-5.7104,-5.7074,-5.7133,-5.7027,-5.7037,-5.7105,-5.7076,-5.7202,-5.7058,-5.713,-5.7133,-5.7129,-5.7456,-5.7521,-5.7748,-5.7344,-5.735,-5.7353,0,-5.71,-5.7128,-5.7296,-5.7277,-5.7301,-5.7374,-5.7404,-5.7454,-5.7457,-5.7433,-5.7454,-5.7383,-5.7472,-5.7346,-5.7466,-5.737,-5.7395,-5.7386,-5.7393,-5.7395,-5.7255,-5.7465,-5.7819,-5.7853,-5.7401,-5.7397,-5.7394,0,-5.735,-5.7431,-5.754,-5.755,-5.7532,-5.7585,-5.758,-5.7577,-5.7604,-5.7631,-5.7648,-5.7686,-5.7706,-5.7737,-5.7678,-5.7592,-5.7807,-5.7676,-5.7788,-5.7789,-5.7836,-5.7833,-5.8197,-5.7858,-5.7857,-5.7856,-5.7856,0,-5.7629,-5.7735,-5.7652,-5.7719,-5.7835,-5.7758,-5.7875,-5.7857,-5.7855,-5.7917,-5.7823,-5.7883,-5.7804,-5.7856,-5.7812,-5.7917,-5.7928,-5.791,-5.7896,-5.7916,-5.7919,-5.793,-5.7912,-5.7865,-5.7863,-5.7862,-5.786,0,-5.7927,-5.7876,-5.7987,-5.7961,-5.7957,-5.8043,-5.802,-5.8081,-5.8048,-5.8127,-5.8142,-5.8091,-5.8147,-5.8093,-5.8147,-5.8117,-5.8257,-5.8222,-5.8255,-5.8244,-5.8358,-5.8347,-5.874,-5.8787,-5.842,-5.8424,-5.8427,0,-5.8107,-5.8185,-5.8167,-5.8201,-5.8202,-5.8259,-5.8285,-5.8214,-5.8246,-5.8256,-5.8315,-5.8364,-5.8398,-5.8495,-5.8462,-5.8503,-5.8466,-5.8602,-5.8472,-5.8489,-5.8465,-5.846,-5.8467,-5.8627,-5.8632,-5.8635,-5.8638,0,-5.8431,-5.8401,-5.8443,-5.8477,-5.8512,-5.8536,-5.8552,-5.8585,-5.8511,-5.8552,-5.8608,-5.8636,-5.869,-5.8739,-5.877,-5.8764,-5.8689,-5.868,-5.8707,-5.8727,-5.8742,-5.8733,-5.8324,-5.867,-5.8667,-5.8665,-5.8663,-5.8662,-5.8673,-5.8737,-5.8733,-5.8783,-5.8787,-5.8805,-5.886,-5.8834,-5.8879,-5.8917,-5.8872,-5.8941,-5.8942,-5.8975,-5.8978,-5.9031,-5.8974,-5.9015,-5.9024,-5.9035,-5.905,-5.8737,-5.9037,-5.9036,-5.9035,-5.9034,-5.9033,0,-5.8989,-5.8981,-5.9028,-5.9053,-5.9092,-5.9018,-5.9032,-5.9069,-5.9131,-5.9137,-5.9173,-5.9237,-5.9284,-5.9256,-5.9296,-5.9344,-5.931,-5.9356,-5.9351,-5.935,-5.91,-5.9071,-5.9383,-5.9383,-5.9382,-5.9382,-5.9382,-5.9382,-5.9158,-5.9261,-5.9231,-5.9336,-5.9327,-5.9392,-5.9406,-5.9421,-5.9426,-5.9501,-5.9539,-5.952,-5.9513,-5.9551,-5.9591,-5.9581,-5.96,-5.9658,-5.9636,-5.9403,-5.9368,-5.9335,-5.9307,-5.9663,-5.9664,-5.9881,-5.9883,-5.9885]},{"header":{"parameterUnit":"m.s-1","parameterCategory":1,"la1":30.2991,"la2":30.254,"lo1":-89.0895,"lo2":-89.0444,"dy":0.0017,"dx":0.0017,"nx":28,"ny":28,"refTime":"2025-08-31T21:00:00:Z","depth":0,"parameterNumber":3,"parameterNumberName":"V-component_of_WINDS"},"data":[0,0,0,0,0,0,0,0,0,0,0,0,0,0,0,0,0,0,0,0,0,0,0,0,0,0,0,0,0,0,0,0,0,0,0,0,0,0,0,0,0,0,0,0,0,0,0,0,0,0,0,0,0,0,0,0,0,0,-0.2965,-0.2965,0,-0.2949,-0.2949,-0.2949,-0.2964,-0.2964,-0.2965,-0.2965,-0.2951,-0.295,-0.2949,0,0,0,0,0,0,0,0,0,0,0,0,0,-0.3007,-0.3007,-0.2965,-0.2965,-0.2965,-0.2949,-0.2949,-0.2949,-0.2963,-0.2964,-0.2965,-0.2966,-0.2951,-0.295,-0.2949,0,0,0,0,0,0,0,0,0,0,0,0,0,-0.299,-0.3006,-0.2965,-0.297,-0.297,-0.2949,-0.2949,-0.2949,-0.2963,-0.2964,-0.2965,-0.2966,-0.2952,-0.295,-0.2949,-0.2923,0,0,-0.2945,-0.2944,0,0,0,0,0,0,0,0,-0.2991,-0.2988,-0.2969,-0.297,-0.297,-0.2959,-0.2959,-0.294,-0.2963,-0.2966,-0.2965,-0.2966,-0.2953,-0.2952,-0.2947,-0.2922,-0.2921,-0.2945,-0.2944,-0.2943,-0.2943,0,0,0,0,0,0,0,-0.2992,-0.2989,-0.2959,-0.2969,-0.2969,-0.2973,-0.2971,-0.2955,-0.2955,-0.2966,-0.2967,-0.2965,-0.2954,-0.2948,-0.2947,-0.2921,-0.2945,-0.2943,-0.2943,-0.2942,-0.287,-0.2869,0,0,0,0,0,0,-0.2993,-0.299,-0.2959,-0.2958,-0.2983,-0.2971,-0.297,-0.2962,-0.2955,-0.2955,-0.2964,-0.2965,-0.295,-0.2948,-0.2946,-0.2913,-0.2943,-0.2942,-0.2941,-0.2872,-0.287,-0.2869,0,0,0,0,0,0,-0.2994,-0.299,-0.296,-0.2974,-0.2971,-0.297,-0.2961,-0.2961,-0.2956,-0.2954,-0.2954,-0.2959,-0.2951,-0.2948,-0.2928,-0.2913,-0.2941,-0.294,-0.2873,-0.2871,-0.287,-0.2848,0,0,0,0,0,0,-0.2995,-0.299,-0.2981,-0.2974,-0.297,-0.2942,-0.296,-0.296,-0.2953,-0.2955,-0.2949,-0.2949,-0.2951,-0.2929,-0.2926,-0.2911,-0.2939,-0.2874,-0.2872,-0.287,-0.285,-0.2845,-0.2842,0,0,0,0,0,-0.2996,-0.2976,-0.298,-0.2976,-0.2958,-0.2941,-0.2939,-0.2942,-0.2952,-0.2942,-0.294,-0.2949,-0.2915,-0.2927,-0.2924,-0.2908,-0.2875,-0.2873,-0.287,-0.2851,-0.2846,-0.2842,0,0,0,0,0,0,-0.2983,-0.2976,-0.298,-0.2957,-0.2949,-0.2943,-0.2931,-0.2936,-0.2926,-0.2929,-0.2933,-0.2932,-0.2909,-0.2907,-0.2921,-0.2881,-0.2897,-0.2893,-0.2883,-0.2879,-0.2875,-0.2876,-0.2938,0,0,0,0,0,-0.2977,-0.2963,-0.2958,-0.2938,-0.2934,-0.2933,-0.2926,-0.2928,-0.2921,-0.2918,-0.2915,-0.2907,-0.2894,-0.2886,-0.2875,-0.2849,-0.2847,-0.2836,-0.2832,-0.2829,-0.2826,-0.281,-0.2805,-0.2861,-0.2861,-0.2861,0,0,-0.2965,-0.2959,-0.2951,-0.2935,-0.293,-0.2915,-0.293,-0.2915,-0.2904,-0.2916,-0.2895,-0.2892,-0.2884,-0.286,-0.2849,-0.2857,-0.281,-0.2826,-0.2823,-0.2823,-0.2807,-0.2802,-0.2797,-0.286,-0.286,-0.286,0,0,-0.2936,-0.2931,-0.2913,-0.2906,-0.2896,-0.2895,-0.289,-0.2883,-0.2881,-0.286,-0.2867,-0.2854,-0.2833,-0.2826,-0.282,-0.2783,-0.2791,-0.278,-0.276,-0.2744,-0.2739,-0.2735,-0.2721,-0.2716,-0.2777,-0.2777,-0.2777,0,-0.2923,-0.2902,-0.2903,-0.2886,-0.2878,-0.2886,-0.2866,-0.286,-0.2847,-0.2841,-0.285,-0.2821,-0.2816,-0.2789,-0.278,-0.2775,-0.2769,-0.2781,-0.2739,-0.2736,-0.2732,-0.2718,-0.2713,-0.2775,-0.2776,-0.2776,-0.2776,0,-0.2885,-0.2869,-0.2856,-0.2841,-0.2832,-0.2814,-0.2812,-0.2802,-0.2804,-0.2801,-0.2779,-0.2773,-0.2759,-0.2752,-0.2756,-0.2725,-0.273,-0.2739,-0.2755,-0.2725,-0.2712,-0.2707,-0.2773,-0.2774,-0.2774,-0.2775,0,0,-0.285,-0.2834,-0.2829,-0.2821,-0.2809,-0.2797,-0.2778,-0.2763,-0.2753,-0.2743,-0.2727,-0.2707,-0.2714,-0.2707,-0.2709,-0.2694,-0.2664,-0.2705,-0.2705,-0.2697,-0.2628,-0.2621,-0.2615,-0.2668,-0.2667,-0.2666,-0.2628,0,-0.282,-0.2787,-0.2786,-0.2756,-0.274,-0.2745,-0.2729,-0.2719,-0.2715,-0.2701,-0.2697,-0.2682,-0.2693,-0.2689,-0.2675,-0.267,-0.265,-0.2673,-0.2652,-0.2652,-0.2654,-0.2609,-0.2602,-0.2567,-0.2623,-0.2622,-0.2622,0,-0.2782,-0.2768,-0.2735,-0.2722,-0.2716,-0.2701,-0.2685,-0.2672,-0.266,-0.2658,-0.2648,-0.2651,-0.263,-0.2646,-0.2617,-0.2633,-0.2624,-0.262,-0.2619,-0.2618,-0.2635,-0.2606,-0.2556,-0.255,-0.2614,-0.2615,-0.2615,0,-0.2758,-0.2732,-0.2708,-0.2701,-0.2686,-0.2675,-0.2668,-0.2657,-0.2647,-0.2633,-0.2626,-0.261,-0.2602,-0.2589,-0.2587,-0.2599,-0.2558,-0.2574,-0.2555,-0.2555,-0.2547,-0.2548,-0.2495,-0.2541,-0.2542,-0.2542,-0.2542,0,-0.2725,-0.2705,-0.2697,-0.2683,-0.2659,-0.2657,-0.2634,-0.2628,-0.2617,-0.2601,-0.2604,-0.2589,-0.2587,-0.2571,-0.2569,-0.2545,-0.2541,-0.2539,-0.2539,-0.2538,-0.2539,-0.2533,-0.2536,-0.254,-0.2541,-0.2541,-0.2541,0,-0.2696,-0.269,-0.2664,-0.265,-0.2646,-0.2629,-0.2617,-0.2603,-0.2598,-0.2577,-0.2572,-0.2564,-0.2545,-0.2541,-0.252,-0.2518,-0.2489,-0.2491,-0.2492,-0.2493,-0.2474,-0.2475,-0.2416,-0.2407,-0.2459,-0.2459,-0.2458,0,-0.2675,-0.2659,-0.2642,-0.2631,-0.2623,-0.2605,-0.2594,-0.259,-0.2578,-0.2561,-0.2548,-0.2529,-0.2514,-0.2482,-0.2475,-0.2457,-0.2459,-0.2439,-0.2457,-0.2456,-0.2458,-0.2459,-0.2457,-0.2436,-0.2436,-0.2435,-0.2435,0,-0.2638,-0.2635,-0.2619,-0.26,-0.2585,-0.2571,-0.2557,-0.2548,-0.2542,-0.2528,-0.2507,-0.2495,-0.247,-0.2451,-0.2432,-0.2425,-0.2429,-0.2429,-0.2424,-0.2424,-0.2425,-0.2423,-0.2483,-0.2431,-0.2431,-0.2432,-0.2432,-0.2432,-0.2613,-0.2597,-0.2582,-0.2563,-0.2551,-0.2537,-0.2522,-0.2513,-0.2496,-0.2475,-0.2474,-0.2451,-0.2436,-0.2411,-0.2402,-0.2384,-0.2391,-0.2383,-0.2381,-0.2379,-0.2377,-0.2427,-0.2381,-0.2381,-0.2381,-0.2381,-0.2381,0,-0.2576,-0.2565,-0.2547,-0.2526,-0.2509,-0.2512,-0.2496,-0.2482,-0.2462,-0.2447,-0.2431,-0.2406,-0.2386,-0.2375,-0.2355,-0.2342,-0.2343,-0.2337,-0.2338,-0.2336,-0.2373,-0.2379,-0.2336,-0.2336,-0.2336,-0.2337,-0.2337,-0.2337,-0.2555,-0.2528,-0.2523,-0.249,-0.248,-0.2456,-0.2446,-0.2433,-0.2421,-0.2392,-0.2375,-0.2367,-0.2354,-0.2332,-0.2313,-0.2311,-0.2303,-0.2296,-0.2294,-0.2329,-0.2334,-0.2338,-0.2344,-0.2294,-0.2294,-0.2258,-0.2258,-0.2258]}]]